Torna al catalogo

FENGYUN 1C DEB

AttivoSSO
NORAD 38717·DEBRIS·🇨🇳 China

Lanciato May 10, 1999 da Taiyuan Satellite Launch Center

Loading…

Prossimi Passaggi (prossime 24 ore)

TLE

In scadenzaSource: Space-Track

Epoca: Sep 9, 2026, 08:15 UTC

1 38717U 99025ETJ 26252.34428903  .00001646  00000-0  76424-3 0  9994
2 38717  99.1473 282.0861 0053093 303.8885  68.8898 14.21400083622698

Traccia FENGYUN 1C DEB in tempo reale con AllMySat

Download on the App Store